Grand Marais, MN

10:59 AM CST on December 04, 2016 (GMT -0600)
Grand Marais-Cook County

Weather History for KCKC - July, 2013

Change the Weather History Date:

Tuesday, July 30, 2013

  Actual Average Record
Temperature  
Mean Temperature 54 °F -  
Max Temperature 66 °F 71 °F 87 °F (1999)
Min Temperature 42 °F 51 °F 39 °F (2014)
Degree Days  
Heating Degree Days 11    
Growing Degree Days 4 (Base 50)    
Moisture  
Dew Point 50 °F    
Average Humidity 83    
Maximum Humidity 94    
Minimum Humidity 64    
Precipitation  
Precipitation 0.10 in - - ()
Sea Level Pressure  
Sea Level Pressure 30.10 in    
Wind  
Wind Speed 2 mph (SSW)    
Max Wind Speed 12 mph    
Max Gust Speed 22 mph    
Visibility 10 miles    
Events Rain    
Averages and records for this station are not official NWS values.
T = Trace of Precipitation, MM = Missing Value Source: NWS Daily Summary

Daily Weather History Graph

Daily Weather History Graph

Search for Another Location

Airport or City:

Trip Planner

Search our weather history database for the weather conditions in past years. The results will help you decide how hot, cold, wet, or windy it might be!

Date:

Astronomy

Jul. 30, 2013 Rise Set
Actual Time 5:36 AM CDT 8:39 PM CDT
Civil Twilight 4:59 AM CDT 9:15 PM CDT
Nautical Twilight 4:12 AM CDT 10:02 PM CDT
Astronomical Twilight 3:13 AM CDT 11:00 PM CDT
Moon No Moon Rise 2:57 PM CDT (7/30)
Length of Visible Light 16h 15m
Length of Day
15h 02m
Last Quarter, 41% of the Moon is Illuminated
Jul 30
Last Quarter
Aug 6
New
Aug 14
First Quarter
Aug 20
Full
Aug 28
Last Quarter

Hourly Weather History & Observations

Time (CDT) Temp. Windchill Dew Point Humidity Pressure Visibility Wind Dir Wind Speed Gust Speed Precip Events Conditions
12:13 AM 46.4 °F - 42.8 °F 87% 30.14 in 10.0 mi Calm Calm - N/A   Clear
12:33 AM 46.4 °F - 42.8 °F 87% 30.14 in 10.0 mi Calm Calm - N/A   Clear
12:54 AM 46.4 °F - 42.8 °F 87% 30.14 in 10.0 mi Calm Calm - N/A   Clear
1:13 AM 44.6 °F - 42.8 °F 93% 30.14 in 10.0 mi Calm Calm - N/A   Clear
1:34 AM 42.8 °F - 39.2 °F 87% 30.14 in 10.0 mi Calm Calm - N/A   Clear
1:53 AM 42.8 °F - 41.0 °F 93% 30.14 in 10.0 mi Calm Calm - N/A   Clear
2:13 AM 42.8 °F - 39.2 °F 87% 30.13 in 10.0 mi Calm Calm - N/A   Clear
2:34 AM 42.8 °F - 39.2 °F 87% 30.13 in 10.0 mi Calm Calm - N/A   Scattered Clouds
2:54 AM 44.6 °F - 42.8 °F 93% 30.13 in 10.0 mi Calm Calm - N/A   Mostly Cloudy
3:13 AM 44.6 °F - 42.8 °F 93% 30.13 in 10.0 mi Calm Calm - N/A   Mostly Cloudy
3:33 AM 44.6 °F - 41.0 °F 87% 30.12 in 10.0 mi Calm Calm - N/A   Scattered Clouds
3:54 AM 44.6 °F 43.1 °F 42.8 °F 93% 30.12 in 10.0 mi NNW 3.5 mph - N/A   Clear
4:13 AM 44.6 °F 42.2 °F 42.8 °F 93% 30.12 in 10.0 mi North 4.6 mph - N/A   Scattered Clouds
4:34 AM 46.4 °F 45.2 °F 42.8 °F 87% 30.11 in 10.0 mi North 3.5 mph - N/A   Scattered Clouds
4:53 AM 46.4 °F 45.2 °F 44.6 °F 93% 30.11 in 10.0 mi North 3.5 mph - N/A   Scattered Clouds
5:13 AM 46.4 °F 45.2 °F 44.6 °F 93% 30.11 in 10.0 mi North 3.5 mph - N/A   Scattered Clouds
5:34 AM 48.2 °F - 44.6 °F 87% 30.11 in 10.0 mi Calm Calm - N/A   Scattered Clouds
5:54 AM 46.4 °F - 44.6 °F 93% 30.11 in 10.0 mi Calm Calm - N/A   Clear
6:13 AM 46.4 °F - 44.6 °F 93% 30.11 in 10.0 mi Calm Calm - N/A   Clear
6:33 AM 48.2 °F - 46.4 °F 93% 30.12 in 10.0 mi ESE 3.5 mph - N/A   Scattered Clouds
6:53 AM 55.4 °F - 48.2 °F 77% 30.12 in 10.0 mi Calm Calm - N/A   Scattered Clouds
7:13 AM 51.8 °F - 48.2 °F 88% 30.12 in 10.0 mi Calm Calm - N/A   Scattered Clouds
7:33 AM 51.8 °F - 48.2 °F 88% 30.13 in 4.0 mi Calm Calm - 0.01 in Rain Rain
7:54 AM 53.6 °F - 50.0 °F 88% 30.14 in 5.0 mi Calm Calm - 0.05 in Rain Rain
8:13 AM 53.6 °F - 50.0 °F 88% 30.14 in 5.0 mi Calm Calm - 0.03 in Rain Rain
8:34 AM 53.6 °F - 50.0 °F 88% 30.14 in 10.0 mi Calm Calm - 0.05 in Rain Light Rain
8:54 AM 55.4 °F - 51.8 °F 88% 30.14 in 10.0 mi Calm Calm - 0.05 in   Light Drizzle
9:13 AM 55.4 °F - 51.8 °F 88% 30.13 in 10.0 mi Calm Calm - N/A   Scattered Clouds
9:34 AM 57.2 °F - 51.8 °F 82% 30.13 in 10.0 mi Calm Calm - N/A   Scattered Clouds
9:53 AM 57.2 °F - 53.6 °F 88% 30.12 in 10.0 mi Calm Calm - N/A   Scattered Clouds
10:14 AM 57.2 °F - 53.6 °F 88% 30.12 in 10.0 mi WSW 3.5 mph - N/A   Scattered Clouds
10:34 AM 57.2 °F - 53.6 °F 88% 30.13 in 10.0 mi Calm Calm - N/A   Scattered Clouds
10:53 AM 59.0 °F - 53.6 °F 82% 30.12 in 10.0 mi Calm Calm - N/A   Scattered Clouds
11:14 AM 60.8 °F - 55.4 °F 82% 30.12 in 10.0 mi WSW 3.5 mph - N/A   Scattered Clouds
11:33 AM 62.6 °F - 55.4 °F 77% 30.11 in 10.0 mi SSW 3.5 mph - N/A   Scattered Clouds
11:53 AM 64.4 °F - 55.4 °F 73% 30.11 in 10.0 mi SSW 4.6 mph - N/A   Scattered Clouds
12:14 PM 64.4 °F - 55.4 °F 73% 30.11 in 10.0 mi SSW 3.5 mph - N/A   Scattered Clouds
12:33 PM 66.2 °F - 55.4 °F 68% 30.11 in 10.0 mi SSW 9.2 mph 16.1 mph N/A   Scattered Clouds
12:53 PM 66.2 °F - 53.6 °F 64% 30.10 in 10.0 mi SSW 8.1 mph 17.3 mph N/A   Scattered Clouds
1:13 PM 66.2 °F - 53.6 °F 64% 30.10 in 10.0 mi South 10.4 mph 17.3 mph N/A   Scattered Clouds
1:34 PM 64.4 °F - 53.6 °F 68% 30.09 in 10.0 mi SSW 10.4 mph 19.6 mph N/A   Scattered Clouds
1:53 PM 64.4 °F - 51.8 °F 64% 30.09 in 10.0 mi South 11.5 mph 21.9 mph N/A   Mostly Cloudy
2:14 PM 64.4 °F - 53.6 °F 68% 30.10 in 10.0 mi SSW 9.2 mph - N/A   Scattered Clouds
2:33 PM 62.6 °F - 53.6 °F 72% 30.10 in 10.0 mi South 8.1 mph - N/A   Mostly Cloudy
2:53 PM 60.8 °F - 53.6 °F 77% 30.09 in 10.0 mi SSW 9.2 mph 16.1 mph N/A   Mostly Cloudy
3:14 PM 62.6 °F - 53.6 °F 72% 30.09 in 10.0 mi SSW 8.1 mph - N/A   Mostly Cloudy
3:33 PM 62.6 °F - 53.6 °F 72% 30.09 in 10.0 mi SSW 5.8 mph - N/A   Mostly Cloudy
3:54 PM 62.6 °F - 53.6 °F 72% 30.09 in 10.0 mi South 8.1 mph - N/A   Mostly Cloudy
4:13 PM 60.8 °F - 53.6 °F 77% 30.09 in 10.0 mi South 6.9 mph - N/A   Overcast
4:34 PM 60.8 °F - 53.6 °F 77% 30.08 in 10.0 mi SSW 5.8 mph - N/A   Mostly Cloudy
4:53 PM 62.6 °F - 53.6 °F 72% 30.08 in 10.0 mi South 6.9 mph - N/A   Mostly Cloudy
5:13 PM 62.6 °F - 53.6 °F 72% 30.08 in 10.0 mi South 4.6 mph - N/A   Scattered Clouds
5:34 PM 62.6 °F - 53.6 °F 72% 30.07 in 10.0 mi South 5.8 mph - N/A   Scattered Clouds
5:54 PM 62.6 °F - 55.4 °F 77% 30.07 in 10.0 mi SSW 6.9 mph - N/A   Scattered Clouds
6:13 PM 62.6 °F - 55.4 °F 77% 30.06 in 10.0 mi South 4.6 mph - N/A   Scattered Clouds
6:34 PM 64.4 °F - 55.4 °F 73% 30.06 in 10.0 mi SSW 4.6 mph - N/A   Clear
6:53 PM 62.6 °F - 55.4 °F 77% 30.06 in 10.0 mi South 6.9 mph - N/A   Clear
7:13 PM 62.6 °F - 55.4 °F 77% 30.06 in 10.0 mi SSW 5.8 mph - N/A   Clear
7:34 PM 60.8 °F - 55.4 °F 82% 30.06 in 10.0 mi South 3.5 mph - N/A   Clear
7:54 PM 59.0 °F - 55.4 °F 88% 30.06 in 10.0 mi Calm Calm - N/A   Clear
8:13 PM 59.0 °F - 53.6 °F 82% 30.06 in 10.0 mi Calm Calm - N/A   Clear
8:33 PM 57.2 °F - 53.6 °F 88% 30.05 in 10.0 mi South 3.5 mph - N/A   Clear
8:53 PM 57.2 °F - 53.6 °F 88% 30.06 in 10.0 mi SSW 3.5 mph - N/A   Clear
9:13 PM 57.2 °F - 53.6 °F 88% 30.06 in 10.0 mi South 4.6 mph - N/A   Clear
9:34 PM 57.2 °F - 53.6 °F 88% 30.07 in 10.0 mi SSW 4.6 mph - N/A   Clear
9:53 PM 57.2 °F - 53.6 °F 88% 30.07 in 10.0 mi SSW 4.6 mph - N/A   Clear
10:13 PM 57.2 °F - 53.6 °F 88% 30.07 in 10.0 mi SSW 4.6 mph - N/A   Scattered Clouds
10:34 PM 57.2 °F - 53.6 °F 88% 30.06 in 10.0 mi SSW 4.6 mph - N/A   Scattered Clouds
10:53 PM 57.2 °F - 53.6 °F 88% 30.06 in 10.0 mi SSW 4.6 mph - N/A   Clear
11:13 PM 57.2 °F - 55.4 °F 94% 30.05 in 10.0 mi SSW 3.5 mph - N/A   Scattered Clouds
11:34 PM 57.2 °F - 55.4 °F 94% 30.04 in 10.0 mi South 4.6 mph - N/A   Scattered Clouds
11:53 PM 57.2 °F - 55.4 °F 94% 30.05 in 7.0 mi SSW 3.5 mph - N/A   Scattered Clouds